Location: Ferchesar
(52.6477°N, 12.4298°E)
Time: 08:01:56
(UTC+01:00)

Transit 2A - Visible Passes

Search period start: 30 November 2022 00:00
Search period end: 10 December 2022 00:00
Orbit: 598 x 959 km, 66.7° (Epoch: 29 November)

Date Brightness Start Highest point End Pass type
(mag) Time Alt. Az. Time Alt. Az. Time Alt. Az.
30 Nov 6.8 17:39:34 10° NW 17:44:44 57° WSW 17:50:24 10° SSE visible
30 Nov 9.2 19:25:11 10° W 19:27:01 12° WSW 19:28:53 10° WSW visible
01 Dec 6.4 17:05:05 10° NW 17:10:19 76° SW 17:16:07 10° SSE visible
01 Dec 9.0 18:49:30 10° WNW 18:52:50 17° WSW 18:56:21 10° SW visible
02 Dec 6.1 16:30:38 10° NW 16:35:53 84° NE 16:41:41 10° SE visible
02 Dec 8.6 18:14:28 10° WNW 18:18:37 23° WSW 18:23:03 10° SSW visible
03 Dec 8.9 07:19:04 10° SE 07:21:29 15° ESE 07:23:58 10° ENE visible
03 Dec 8.2 17:39:41 10° NW 17:44:21 31° WSW 17:49:23 10° S visible
04 Dec 7.7 17:05:03 10° NW 17:10:02 41° WSW 17:15:29 10° S visible
05 Dec 7.1 16:30:28 10° NW 16:35:40 55° WSW 16:41:23 10° SSE visible
05 Dec 9.7 18:16:16 10° W 18:17:55 11° WSW 18:19:36 10° WSW visible
06 Dec 7.9 07:16:52 10° S 07:20:45 31° ESE 07:24:53 10° NE visible
06 Dec 9.4 17:40:29 10° WNW 17:43:46 16° WSW 17:47:12 10° SW visible
07 Dec 8.5 06:43:07 10° SSE 06:46:31 22° ESE 06:50:06 10° ENE visible
07 Dec 9.0 17:05:25 10° WNW 17:09:33 22° WSW 17:13:56 10° SSW visible
08 Dec 8.9 06:09:44 10° SE 06:12:20 15° ESE 06:15:02 10° ENE visible
08 Dec 8.5 16:30:36 10° NW 16:35:17 30° WSW 16:40:19 10° S visible
09 Dec 9.3 05:37:28 10° ESE 05:38:13 10° ESE 05:38:58 10° E visible
09 Dec 6.2 07:15:53 10° SSW 07:20:16 66° SE 07:25:03 10° NE visible
